Tracking 31080 objects as of 20-Jul-2025
HD Live streaming from Space Station
objects crossing your sky now

STARLINK-5501

Track STARLINK-5501 now!
10-day predictions
STARLINK-5501 is classified as:


NORAD ID: 55648
Int'l Code: 2023-021W
Perigee: 577.3 km
Apogee: 581.0 km
Inclination: 70.0 °
Period: 96.1 minutes
Semi major axis: 6950 km
RCS: Unknown
Launch date: February 17, 2023
Source: United States (US)
Launch site: AIR FORCE WESTERN TEST RANGE (AFWTR)
Your satellite tracking list
Your tracking list is empty




NASA's NSSDC Master Catalog

Two Line Element Set (TLE):
1 55648U 23021W   25201.58618685  .00000454  00000-0  45880-4 0  9995
2 55648  69.9993  49.7078 0002665 268.2059  91.8795 14.98329244134026
Source of the keplerian elements: AFSPC